[[{"header":{"parameterUnit":"m.s-1","parameterCategory":2,"la1":30.2991,"la2":30.254,"lo1":-89.0895,"lo2":-89.0444,"dy":0.0017,"dx":0.0017,"nx":28,"ny":28,"refTime":"2025-04-30T03:00:00:Z","depth":"0","parameterNumber":2,"parameterNumberName":"U-component_of_CURRENTS"},"data":[0,0,0,0,0,0,0,0,0,0,0,0,0,0,0,0,0,0,0,0,0,0,0,0,0,0,0,0,0,0,0,0,0,0,0,0,0,0,0,0,0,0,0,0,0,0,0,0,0,0,0,0,0,0,0,0,0,0,-0.2761,-0.2762,0,-0.2812,-0.2812,-0.2813,-0.2787,-0.2786,-0.2785,-0.2784,-0.275,-0.2751,-0.2751,0,0,0,0,0,0,0,0,0,0,0,0,0,-0.264,-0.2642,-0.2761,-0.2762,-0.2763,-0.2812,-0.2812,-0.2813,-0.2787,-0.2786,-0.2785,-0.2783,-0.275,-0.2751,-0.2751,0,0,0,0,0,0,0,0,0,0,0,0,0,-0.2689,-0.2643,-0.2761,-0.2758,-0.2759,-0.2812,-0.2813,-0.2813,-0.2788,-0.2786,-0.2784,-0.2783,-0.275,-0.2751,-0.2751,-0.2784,0,0,-0.2751,-0.2751,0,0,0,0,0,0,0,0,-0.2686,-0.2693,-0.2758,-0.2759,-0.2759,-0.2794,-0.2758,-0.28,-0.2788,-0.2774,-0.2784,-0.2782,-0.276,-0.276,-0.277,-0.2782,-0.2781,-0.2751,-0.2751,-0.2751,-0.2751,0,0,0,0,0,0,0,-0.2683,-0.2691,-0.2778,-0.2759,-0.276,-0.2754,-0.2759,-0.2766,-0.2772,-0.2775,-0.2774,-0.2784,-0.2759,-0.277,-0.2769,-0.278,-0.2751,-0.2751,-0.2751,-0.2752,-0.2812,-0.2813,0,0,0,0,0,0,-0.2685,-0.2688,-0.2777,-0.278,-0.2721,-0.2758,-0.2763,-0.2782,-0.2773,-0.2772,-0.2786,-0.2783,-0.277,-0.2769,-0.2767,-0.2799,-0.2751,-0.2752,-0.2752,-0.281,-0.2812,-0.2814,0,0,0,0,0,0,-0.2682,-0.2693,-0.2775,-0.2737,-0.2747,-0.2762,-0.2783,-0.2784,-0.2788,-0.2783,-0.2779,-0.2789,-0.2769,-0.2767,-0.2778,-0.2797,-0.2752,-0.2752,-0.2808,-0.2811,-0.2813,-0.2865,0,0,0,0,0,0,-0.2679,-0.2692,-0.27,-0.2737,-0.2749,-0.2812,-0.2785,-0.2786,-0.2799,-0.2796,-0.2785,-0.278,-0.2768,-0.2778,-0.2778,-0.2796,-0.2752,-0.2806,-0.2809,-0.2812,-0.2862,-0.2869,-0.2875,0,0,0,0,0,-0.2675,-0.2697,-0.27,-0.2711,-0.2763,-0.2813,-0.2819,-0.2821,-0.2801,-0.2815,-0.2805,-0.278,-0.2795,-0.2779,-0.2779,-0.2798,-0.2805,-0.2809,-0.2812,-0.2859,-0.2868,-0.2875,0,0,0,0,0,0,-0.2644,-0.2699,-0.2702,-0.2738,-0.2775,-0.281,-0.2822,-0.2825,-0.2831,-0.282,-0.2801,-0.2798,-0.2816,-0.2805,-0.2787,-0.2825,-0.2796,-0.2799,-0.2832,-0.284,-0.2847,-0.2841,-0.2752,0,0,0,0,0,-0.2645,-0.2675,-0.2725,-0.2751,-0.2771,-0.2795,-0.2812,-0.2822,-0.2837,-0.2837,-0.2831,-0.2826,-0.2834,-0.2833,-0.2839,-0.286,-0.2846,-0.2873,-0.288,-0.2886,-0.2882,-0.2897,-0.2904,-0.2825,-0.2825,-0.2824,0,0,-0.2637,-0.2673,-0.2686,-0.2746,-0.2769,-0.2813,-0.28,-0.2836,-0.2864,-0.2833,-0.2855,-0.2851,-0.2847,-0.2871,-0.2878,-0.286,-0.29,-0.289,-0.2895,-0.2888,-0.2901,-0.2909,-0.2915,-0.2827,-0.2826,-0.2826,0,0,-0.2649,-0.2673,-0.2706,-0.2745,-0.2796,-0.2821,-0.2832,-0.2875,-0.2881,-0.2915,-0.2897,-0.2905,-0.2918,-0.292,-0.2922,-0.2972,-0.2939,-0.2973,-0.2999,-0.3014,-0.302,-0.3025,-0.3009,-0.3013,-0.2973,-0.2973,-0.2974,0,-0.2634,-0.2689,-0.2721,-0.2771,-0.2802,-0.2826,-0.287,-0.2895,-0.2932,-0.2943,-0.2926,-0.2954,-0.2943,-0.2974,-0.2985,-0.2986,-0.2977,-0.2966,-0.3022,-0.3027,-0.3031,-0.3013,-0.3017,-0.2976,-0.2976,-0.2976,-0.2975,0,-0.2677,-0.2723,-0.2747,-0.2816,-0.2855,-0.2898,-0.2945,-0.2973,-0.2979,-0.2999,-0.303,-0.3026,-0.3035,-0.3041,-0.3022,-0.3055,-0.3033,-0.3031,-0.2997,-0.3042,-0.3021,-0.3023,-0.2981,-0.298,-0.2979,-0.2978,0,0,-0.263,-0.2754,-0.2759,-0.2799,-0.2883,-0.2916,-0.2973,-0.3028,-0.3053,-0.3081,-0.3108,-0.3123,-0.311,-0.3111,-0.3098,-0.3105,-0.312,-0.3077,-0.3076,-0.3054,-0.3131,-0.3022,-0.3014,-0.3129,-0.313,-0.3131,-0.31,0,-0.2647,-0.2745,-0.2802,-0.2878,-0.2929,-0.2979,-0.3029,-0.3079,-0.3106,-0.3138,-0.3145,-0.3163,-0.3142,-0.3138,-0.3148,-0.313,-0.313,-0.3127,-0.3097,-0.3095,-0.2987,-0.3015,-0.2884,-0.2838,-0.3102,-0.3102,-0.3103,0,-0.2658,-0.2728,-0.2814,-0.2916,-0.294,-0.2984,-0.3053,-0.31,-0.3159,-0.3181,-0.3207,-0.3209,-0.3223,-0.3195,-0.3195,-0.3194,-0.3162,-0.3146,-0.3144,-0.3023,-0.299,-0.2838,-0.2832,-0.2815,-0.3106,-0.3106,-0.3105,0,-0.26,-0.2723,-0.2788,-0.2827,-0.295,-0.2982,-0.3029,-0.3101,-0.3137,-0.3193,-0.3217,-0.3248,-0.3247,-0.3241,-0.3193,-0.32,-0.3177,-0.3185,-0.306,-0.3051,-0.2922,-0.29,-0.2886,-0.3182,-0.3182,-0.3182,-0.3182,0,-0.2592,-0.2636,-0.2765,-0.28,-0.2855,-0.2947,-0.2996,-0.3051,-0.3127,-0.316,-0.3216,-0.3237,-0.3258,-0.3245,-0.321,-0.3125,-0.319,-0.3058,-0.3039,-0.2935,-0.2915,-0.2878,-0.2905,-0.3181,-0.3181,-0.3181,-0.3181,0,-0.251,-0.2607,-0.2675,-0.28,-0.2832,-0.2857,-0.2963,-0.2997,-0.3085,-0.3128,-0.3145,-0.3224,-0.3204,-0.3197,-0.3173,-0.3123,-0.301,-0.3019,-0.2874,-0.2838,-0.2698,-0.2732,-0.2688,-0.2615,-0.2887,-0.2884,-0.2881,0,-0.2478,-0.251,-0.2634,-0.2662,-0.2712,-0.2777,-0.2819,-0.2942,-0.2985,-0.3104,-0.3112,-0.3137,-0.3103,-0.3034,-0.296,-0.287,-0.2888,-0.2714,-0.2702,-0.2662,-0.2689,-0.2723,-0.2667,-0.2555,-0.255,-0.2547,-0.2543,0,-0.2385,-0.2427,-0.2483,-0.255,-0.2598,-0.2656,-0.273,-0.2766,-0.29,-0.2942,-0.2976,-0.2958,-0.2914,-0.2772,-0.2675,-0.2613,-0.2645,-0.2627,-0.2638,-0.2463,-0.2449,-0.2376,-0.2597,-0.2508,-0.2511,-0.2514,-0.2516,-0.2517,-0.2278,-0.2288,-0.2358,-0.2404,-0.246,-0.2493,-0.2485,-0.2578,-0.261,-0.2635,-0.275,-0.2682,-0.264,-0.2475,-0.2411,-0.228,-0.2368,-0.2232,-0.2287,-0.2332,-0.223,-0.2349,-0.2208,-0.221,-0.2211,-0.2213,-0.2214,0,-0.2125,-0.216,-0.2205,-0.2253,-0.2245,-0.2331,-0.2385,-0.2344,-0.2313,-0.238,-0.237,-0.2335,-0.22,-0.218,-0.2076,-0.1984,-0.1952,-0.1958,-0.1997,-0.1963,-0.2098,-0.205,-0.1804,-0.1804,-0.1804,-0.1804,-0.1804,-0.1804,-0.2045,-0.203,-0.2067,-0.2012,-0.2038,-0.1971,-0.1959,-0.1924,-0.1933,-0.1864,-0.187,-0.1917,-0.1952,-0.2108,-0.1984,-0.1884,-0.1863,-0.1794,-0.1847,-0.1976,-0.2007,-0.2037,-0.1998,-0.1745,-0.1745,-0.1629,-0.1628,-0.1628]},{"header":{"parameterUnit":"m.s-1","parameterCategory":2,"la1":30.2991,"la2":30.254,"lo1":-89.0895,"lo2":-89.0444,"dy":0.0017,"dx":0.0017,"nx":28,"ny":28,"refTime":"2025-04-30T03:00:00:Z","depth":"0","parameterNumber":3,"parameterNumberName":"V-component_of_CURRENTS"},"data":[0,0,0,0,0,0,0,0,0,0,0,0,0,0,0,0,0,0,0,0,0,0,0,0,0,0,0,0,0,0,0,0,0,0,0,0,0,0,0,0,0,0,0,0,0,0,0,0,0,0,0,0,0,0,0,0,0,0,-0.0067,-0.0066,0,0.0028,0.0029,0.0031,0.0104,0.0105,0.0105,0.0105,0.0254,0.0258,0.0261,0,0,0,0,0,0,0,0,0,0,0,0,0,-0.0127,-0.0127,-0.0067,-0.0066,-0.0065,0.0028,0.0029,0.0031,0.0104,0.0105,0.0105,0.0106,0.0253,0.0257,0.0261,0,0,0,0,0,0,0,0,0,0,0,0,0,-0.0071,-0.0127,-0.0067,-0.002,-0.0014,0.0028,0.0029,0.0031,0.0104,0.0105,0.0105,0.0106,0.0252,0.0257,0.0262,0.0281,0,0,0.0278,0.0281,0,0,0,0,0,0,0,0,-0.0075,-0.0069,-0.0028,-0.0023,-0.0017,0.0053,0.0063,0.0117,0.0104,0.0062,0.0105,0.0106,0.0189,0.02,0.0219,0.0288,0.0295,0.0279,0.0282,0.0284,0.0286,0,0,0,0,0,0,0,-0.0079,-0.0072,-0.0027,-0.0027,-0.002,0.0017,0.0025,0.0074,0.0124,0.0065,0.007,0.0076,0.0193,0.0214,0.0223,0.0297,0.0279,0.0283,0.0287,0.0289,0.0404,0.0404,0,0,0,0,0,0,-0.01,-0.0076,-0.003,-0.0024,-0.0048,0.0017,0.0027,0.0032,0.0122,0.0135,0.0076,0.0079,0.0205,0.0217,0.0229,0.0259,0.0284,0.0289,0.0292,0.0404,0.0404,0.0404,0,0,0,0,0,0,-0.0101,-0.0096,-0.0034,-0.005,-0.004,0.0017,0.0022,0.0033,0.0054,0.0129,0.0144,0.0084,0.0206,0.0222,0.0269,0.0265,0.0292,0.0296,0.0404,0.0404,0.0404,0.0317,0,0,0,0,0,0,-0.0103,-0.0098,-0.0104,-0.0052,-0.004,-0.0021,0.0022,0.0034,0.0055,0.0061,0.0141,0.0156,0.0207,0.0261,0.0275,0.0273,0.0301,0.0404,0.0404,0.0404,0.032,0.0314,0.0309,0,0,0,0,0,-0.0106,-0.0123,-0.0104,-0.0099,-0.0049,-0.0022,-0.0013,0.0032,0.0054,0.0055,0.0114,0.0153,0.0269,0.0265,0.0281,0.0281,0.0405,0.0404,0.0404,0.0323,0.0315,0.0309,0,0,0,0,0,0,-0.0154,-0.0116,-0.0094,-0.0099,-0.0068,-0.0011,-0.0009,0.0024,0.007,0.0078,0.0153,0.0171,0.0209,0.0257,0.025,0.0314,0.0343,0.0346,0.0276,0.0269,0.0264,0.0249,0.0305,0,0,0,0,0,-0.0169,-0.0169,-0.0125,-0.0129,-0.0117,-0.0064,-0.0048,-0.0017,0.003,0.0052,0.0107,0.0169,0.022,0.0253,0.0301,0.0338,0.0397,0.0349,0.0343,0.0338,0.0337,0.0417,0.0418,0.0403,0.0403,0.0403,0,0,-0.0189,-0.0168,-0.0168,-0.0139,-0.011,-0.0105,-0.0052,-0.0036,-0.0024,0.0061,0.0091,0.0147,0.0224,0.0262,0.0284,0.0304,0.0373,0.0337,0.0332,0.0335,0.0417,0.0419,0.042,0.0403,0.0403,0.0403,0,0,-0.0237,-0.0212,-0.0229,-0.021,-0.0177,-0.0141,-0.0142,-0.009,-0.0059,-0.0023,0.004,0.0095,0.0168,0.0227,0.0266,0.026,0.0334,0.0272,0.0241,0.0318,0.032,0.0322,0.0397,0.0407,0.0276,0.0276,0.0276,0,-0.0265,-0.0277,-0.0231,-0.0243,-0.0234,-0.0165,-0.0181,-0.0139,-0.0078,-0.005,-0.0028,0.0095,0.0154,0.022,0.0217,0.0247,0.0302,0.0257,0.031,0.0313,0.0317,0.0394,0.0406,0.0272,0.0272,0.0273,0.0273,0,-0.0322,-0.0331,-0.0341,-0.033,-0.0313,-0.0316,-0.0257,-0.023,-0.0183,-0.0132,-0.0064,0.0024,0.01,0.0126,0.0171,0.0229,0.0262,0.0286,0.0323,0.0314,0.0395,0.0409,0.0266,0.0267,0.0269,0.027,0,0,-0.0386,-0.0385,-0.0387,-0.04,-0.036,-0.0354,-0.033,-0.0284,-0.0261,-0.0185,-0.0144,-0.0049,0.001,0.0058,0.0128,0.02,0.0274,0.0248,0.0254,0.0315,0.0447,0.0481,0.0501,0.0306,0.0308,0.031,0.0492,0,-0.0446,-0.0497,-0.0467,-0.0504,-0.0525,-0.0455,-0.0438,-0.0381,-0.0314,-0.0254,-0.0139,-0.0077,-0.0018,0.002,0.01,0.0229,0.0307,0.0223,0.0454,0.0461,0.0487,0.0517,0.0554,0.072,0.0506,0.0508,0.051,0,-0.0511,-0.0537,-0.059,-0.0594,-0.0593,-0.0595,-0.0548,-0.0522,-0.041,-0.0354,-0.0259,-0.0165,-0.0044,0.0002,0.0224,0.0167,0.0294,0.04,0.041,0.0483,0.0521,0.0697,0.0755,0.0937,0.0533,0.0531,0.0529,0,-0.0588,-0.062,-0.0667,-0.067,-0.0659,-0.0659,-0.0639,-0.0553,-0.0525,-0.041,-0.0369,-0.0213,-0.0124,0.0046,0.0262,0.0245,0.0514,0.0522,0.068,0.0684,0.0783,0.0792,0.1039,0.0681,0.0681,0.068,0.068,0,-0.0668,-0.0705,-0.071,-0.0739,-0.0782,-0.0737,-0.0745,-0.0697,-0.0613,-0.057,-0.0429,-0.0345,-0.0109,0.0075,0.0256,0.0518,0.0517,0.0687,0.0738,0.0753,0.0757,0.0973,0.1032,0.0687,0.0686,0.0684,0.0683,0,-0.0747,-0.0751,-0.081,-0.082,-0.0825,-0.0853,-0.0832,-0.0826,-0.0738,-0.0673,-0.0639,-0.0428,-0.0181,0.0065,0.037,0.0518,0.0877,0.085,0.085,0.0896,0.1179,0.1229,0.1511,0.1619,0.1045,0.1047,0.1049,0,-0.0794,-0.0833,-0.088,-0.0919,-0.0929,-0.0955,-0.0967,-0.0899,-0.0877,-0.071,-0.0678,-0.043,-0.0225,0.0227,0.0534,0.0869,0.1005,0.1085,0.1056,0.1218,0.1312,0.134,0.1412,0.1163,0.1166,0.1168,0.1169,0,-0.0878,-0.0889,-0.0933,-0.1018,-0.1057,-0.1089,-0.1092,-0.1094,-0.0986,-0.0888,-0.0699,-0.0516,-0.0074,0.0334,0.0749,0.0948,0.121,0.1135,0.1322,0.1443,0.1474,0.1594,0.1015,0.1188,0.1186,0.1184,0.1184,0.1183,-0.0925,-0.0978,-0.1035,-0.111,-0.1159,-0.1198,-0.1207,-0.1165,-0.1095,-0.0908,-0.0725,-0.0385,0.0166,0.0766,0.0989,0.1444,0.1391,0.158,0.1635,0.1655,0.1739,0.1188,0.1394,0.1393,0.1393,0.1392,0.1392,0,-0.0979,-0.1035,-0.1121,-0.12,-0.126,-0.126,-0.1265,-0.1214,-0.1105,-0.0881,-0.0642,0.0017,0.0567,0.1068,0.1686,0.1933,0.1985,0.2058,0.2127,0.2183,0.1735,0.1719,0.1981,0.198,0.198,0.198,0.198,0.198,-0.101,-0.1099,-0.1146,-0.1259,-0.1307,-0.1331,-0.132,-0.1194,-0.1017,-0.0599,-0.0205,0.0107,0.0801,0.1775,0.2353,0.241,0.2624,0.2595,0.2711,0.2412,0.2372,0.2333,0.2336,0.2723,0.2724,0.3151,0.3155,0.3158]}],[{"header":{"parameterUnit":"m.s-1","parameterCategory":2,"la1":30.2991,"la2":30.254,"lo1":-89.0895,"lo2":-89.0444,"dy":0.0017,"dx":0.0017,"nx":28,"ny":28,"refTime":"2025-04-30T03:00:00:Z","depth":"2","parameterNumber":2,"parameterNumberName":"U-component_of_CURRENTS"},"data":[0,0,0,0,0,0,0,0,0,0,0,0,0,0,0,0,0,0,0,0,0,0,0,0,0,0,0,0,0,0,0,0,0,0,0,0,0,0,0,0,0,0,0,0,0,0,0,0,0,0,0,0,0,0,0,0,0,0,-0.2554,-0.2555,0,-0.2602,-0.2602,-0.2603,-0.2585,-0.2584,-0.2583,-0.2582,-0.2559,-0.256,-0.256,0,0,0,0,0,0,0,0,0,0,0,0,0,-0.2446,-0.2448,-0.2554,-0.2555,-0.2555,-0.2602,-0.2602,-0.2603,-0.2585,-0.2584,-0.2583,-0.2582,-0.2559,-0.2559,-0.256,0,0,0,0,0,0,0,0,0,0,0,0,0,-0.2491,-0.2449,-0.2554,-0.2554,-0.2555,-0.2602,-0.2602,-0.2603,-0.2585,-0.2584,-0.2582,-0.2581,-0.2559,-0.2559,-0.256,-0.2587,0,0,-0.2561,-0.2561,0,0,0,0,0,0,0,0,-0.2489,-0.2495,-0.2553,-0.2554,-0.2555,-0.2588,-0.2556,-0.2595,-0.2585,-0.2571,-0.2582,-0.258,-0.2565,-0.2565,-0.2574,-0.2586,-0.2585,-0.2561,-0.2561,-0.2561,-0.2561,0,0,0,0,0,0,0,-0.2485,-0.2493,-0.257,-0.2554,-0.2555,-0.2552,-0.2557,-0.2564,-0.2571,-0.2572,-0.2571,-0.2581,-0.2564,-0.2574,-0.2573,-0.2585,-0.2561,-0.2561,-0.2561,-0.2561,-0.2626,-0.2627,0,0,0,0,0,0,-0.2487,-0.249,-0.2569,-0.2572,-0.2521,-0.2555,-0.256,-0.2577,-0.2573,-0.2572,-0.2582,-0.258,-0.2574,-0.2573,-0.2572,-0.261,-0.2561,-0.2561,-0.2561,-0.2624,-0.2626,-0.2628,0,0,0,0,0,0,-0.2484,-0.2494,-0.2567,-0.2533,-0.2543,-0.2559,-0.2577,-0.2578,-0.2586,-0.2582,-0.2579,-0.2589,-0.2573,-0.2572,-0.2587,-0.2608,-0.2561,-0.2562,-0.2622,-0.2625,-0.2627,-0.2681,0,0,0,0,0,0,-0.2481,-0.2493,-0.2501,-0.2534,-0.2545,-0.2602,-0.2579,-0.258,-0.2596,-0.2593,-0.2587,-0.2583,-0.2572,-0.2587,-0.2587,-0.2608,-0.2562,-0.262,-0.2624,-0.2626,-0.2677,-0.2685,-0.2691,0,0,0,0,0,-0.2477,-0.2498,-0.2502,-0.2511,-0.2558,-0.2603,-0.2609,-0.2613,-0.2597,-0.2612,-0.2607,-0.2583,-0.2605,-0.2588,-0.2588,-0.261,-0.2619,-0.2623,-0.2626,-0.2674,-0.2683,-0.2691,0,0,0,0,0,0,-0.2453,-0.25,-0.2504,-0.2536,-0.257,-0.2601,-0.2613,-0.2618,-0.2627,-0.262,-0.2604,-0.2602,-0.2624,-0.2614,-0.2596,-0.2638,-0.2608,-0.2612,-0.2645,-0.2653,-0.266,-0.2655,-0.2562,0,0,0,0,0,-0.2455,-0.2481,-0.2525,-0.2549,-0.2567,-0.259,-0.2606,-0.2617,-0.2633,-0.2635,-0.2633,-0.2632,-0.2642,-0.2643,-0.2651,-0.2674,-0.2658,-0.2689,-0.2696,-0.2702,-0.2699,-0.271,-0.2717,-0.2639,-0.2639,-0.2639,0,0,-0.245,-0.248,-0.2492,-0.2545,-0.2566,-0.2607,-0.2596,-0.263,-0.2659,-0.2631,-0.2659,-0.2658,-0.2655,-0.2683,-0.2691,-0.2673,-0.2715,-0.2706,-0.2711,-0.2705,-0.2714,-0.2721,-0.2728,-0.2641,-0.2641,-0.2641,0,0,-0.2462,-0.2483,-0.2512,-0.2548,-0.2594,-0.2617,-0.263,-0.267,-0.2679,-0.2716,-0.2702,-0.2714,-0.273,-0.2734,-0.2736,-0.2788,-0.2755,-0.2791,-0.2819,-0.283,-0.2836,-0.2841,-0.2825,-0.2828,-0.2792,-0.2792,-0.2792,0,-0.2451,-0.2498,-0.2526,-0.257,-0.2599,-0.2624,-0.2665,-0.2691,-0.2729,-0.2742,-0.273,-0.2764,-0.2756,-0.2789,-0.2802,-0.2803,-0.2793,-0.2785,-0.2838,-0.2842,-0.2847,-0.2829,-0.2832,-0.2795,-0.2795,-0.2794,-0.2794,0,-0.2489,-0.253,-0.2551,-0.2613,-0.265,-0.269,-0.2737,-0.2768,-0.278,-0.2801,-0.2837,-0.2837,-0.2851,-0.2858,-0.2841,-0.2874,-0.2852,-0.2847,-0.2812,-0.2858,-0.2836,-0.2838,-0.2799,-0.2798,-0.2797,-0.2797,0,0,-0.245,-0.2557,-0.2562,-0.2599,-0.2677,-0.2709,-0.2767,-0.2823,-0.285,-0.2883,-0.2913,-0.2935,-0.2926,-0.2928,-0.2918,-0.2923,-0.2938,-0.2895,-0.2894,-0.2871,-0.2943,-0.2839,-0.283,-0.2943,-0.2944,-0.2944,-0.2913,0,-0.2466,-0.255,-0.2602,-0.2672,-0.2717,-0.2769,-0.282,-0.2872,-0.2903,-0.2939,-0.2951,-0.2973,-0.2958,-0.2958,-0.2967,-0.2945,-0.2947,-0.2945,-0.2908,-0.2906,-0.2803,-0.2831,-0.262,-0.2567,-0.2914,-0.2915,-0.2915,0,-0.2477,-0.2535,-0.2611,-0.2706,-0.2728,-0.2773,-0.2847,-0.2896,-0.2958,-0.2982,-0.3013,-0.3019,-0.3035,-0.3011,-0.3008,-0.3007,-0.2977,-0.2959,-0.2958,-0.284,-0.2806,-0.258,-0.2557,-0.2918,-0.2917,-0.2917,-0.2917,0,-0.2424,-0.2534,-0.2591,-0.2626,-0.274,-0.2774,-0.2824,-0.2899,-0.2936,-0.2996,-0.3021,-0.3054,-0.3055,-0.3048,-0.3005,-0.301,-0.2985,-0.2989,-0.2871,-0.2862,-0.2664,-0.2636,-0.2986,-0.2986,-0.2986,-0.2986,-0.2986,0,-0.2417,-0.2457,-0.257,-0.2601,-0.2655,-0.2743,-0.2797,-0.2853,-0.293,-0.2963,-0.3023,-0.3042,-0.3064,-0.3053,-0.3019,-0.2936,-0.2997,-0.287,-0.285,-0.2676,-0.2651,-0.2941,-0.2936,-0.2985,-0.2985,-0.2985,-0.2986,0,-0.2345,-0.2429,-0.2488,-0.2602,-0.2633,-0.2661,-0.2766,-0.2802,-0.2891,-0.2933,-0.2951,-0.3028,-0.3008,-0.3007,-0.298,-0.2932,-0.2877,-0.2832,-0.261,-0.2564,-0.2746,-0.2745,-0.2708,-0.2704,-0.2701,-0.2698,-0.2696,0,-0.2317,-0.2343,-0.2451,-0.2475,-0.2523,-0.2588,-0.2629,-0.2749,-0.279,-0.2907,-0.2911,-0.294,-0.2905,-0.2837,-0.2761,-0.2676,-0.2775,-0.2449,-0.2424,-0.2735,-0.2719,-0.2723,-0.2726,-0.2181,-0.2175,-0.217,-0.2166,0,-0.2235,-0.2271,-0.2317,-0.2371,-0.2416,-0.2469,-0.254,-0.2571,-0.2701,-0.2739,-0.2765,-0.2749,-0.2704,-0.252,-0.2433,-0.2364,-0.2449,-0.234,-0.272,-0.2287,-0.2236,-0.2222,-0.2243,-0.2119,-0.2124,-0.2127,-0.213,-0.2132,-0.2143,-0.2147,-0.2201,-0.2237,-0.2286,-0.231,-0.2297,-0.2382,-0.2406,-0.2416,-0.2527,-0.2427,-0.2418,-0.2157,-0.2053,-0.198,-0.2147,-0.2063,-0.208,-0.2102,-0.205,-0.1996,-0.1823,-0.1826,-0.1828,-0.1831,-0.1832,0,-0.2007,-0.203,-0.2061,-0.2093,-0.2078,-0.2159,-0.2198,-0.2147,-0.2102,-0.2144,-0.2124,-0.1893,-0.178,-0.1778,-0.1589,-0.156,-0.1555,-0.1504,-0.1501,-0.1547,-0.1587,-0.151,-0.114,-0.1138,-0.1136,-0.1134,0,0,-0.1934,-0.191,-0.1932,-0.1863,-0.1881,-0.1799,-0.1778,-0.1721,-0.1705,-0.158,-0.1527,-0.1669,-0.1708,-0.1422,-0.1362,-0.1218,-0.1368,-0.1156,-0.1708,-0.1748,-0.1786,-0.1902,-0.1833,0,0,0,0,0]},{"header":{"parameterUnit":"m.s-1","parameterCategory":2,"la1":30.2991,"la2":30.254,"lo1":-89.0895,"lo2":-89.0444,"dy":0.0017,"dx":0.0017,"nx":28,"ny":28,"refTime":"2025-04-30T03:00:00:Z","depth":"2","parameterNumber":3,"parameterNumberName":"V-component_of_CURRENTS"},"data":[0,0,0,0,0,0,0,0,0,0,0,0,0,0,0,0,0,0,0,0,0,0,0,0,0,0,0,0,0,0,0,0,0,0,0,0,0,0,0,0,0,0,0,0,0,0,0,0,0,0,0,0,0,0,0,0,0,0,-0.0167,-0.0166,0,-0.0081,-0.008,-0.0079,-0.0012,-0.0011,-0.0011,-0.001,0.013,0.0134,0.0137,0,0,0,0,0,0,0,0,0,0,0,0,0,-0.0221,-0.0221,-0.0167,-0.0166,-0.0165,-0.0081,-0.008,-0.0078,-0.0012,-0.0011,-0.0011,-0.001,0.0129,0.0133,0.0137,0,0,0,0,0,0,0,0,0,0,0,0,0,-0.017,-0.022,-0.0167,-0.0124,-0.0119,-0.0082,-0.008,-0.0078,-0.0012,-0.0011,-0.0011,-0.001,0.0128,0.0133,0.0138,0.0156,0,0,0.0153,0.0155,0,0,0,0,0,0,0,0,-0.0173,-0.0168,-0.0131,-0.0127,-0.0122,-0.0059,-0.0047,0.0002,-0.0012,-0.005,-0.001,-0.001,0.007,0.008,0.0098,0.0163,0.0169,0.0154,0.0157,0.0159,0.016,0,0,0,0,0,0,0,-0.0177,-0.0171,-0.013,-0.013,-0.0125,-0.0091,-0.0083,-0.0037,0.0008,-0.0047,-0.0042,-0.0037,0.0074,0.0092,0.0101,0.0171,0.0153,0.0158,0.0161,0.0163,0.0279,0.0279,0,0,0,0,0,0,-0.0196,-0.0175,-0.0133,-0.0128,-0.0149,-0.0091,-0.0082,-0.0077,0.0007,0.0019,-0.0037,-0.0034,0.0084,0.0095,0.0107,0.014,0.0159,0.0163,0.0166,0.0279,0.0279,0.0279,0,0,0,0,0,0,-0.0198,-0.0193,-0.0137,-0.0151,-0.0142,-0.0091,-0.0086,-0.0076,-0.0057,0.0013,0.0027,-0.0029,0.0084,0.01,0.0147,0.0146,0.0166,0.017,0.0279,0.0279,0.0279,0.0203,0,0,0,0,0,0,-0.02,-0.0194,-0.0199,-0.0153,-0.0142,-0.0125,-0.0087,-0.0075,-0.0056,-0.005,0.0025,0.0039,0.0086,0.0139,0.0152,0.0153,0.0174,0.0279,0.0279,0.0279,0.0205,0.02,0.0196,0,0,0,0,0,-0.0202,-0.0217,-0.02,-0.0195,-0.015,-0.0126,-0.0117,-0.0077,-0.0056,-0.0055,0.0001,0.0036,0.0149,0.0143,0.0158,0.0161,0.0278,0.0279,0.0279,0.0207,0.0201,0.0196,0,0,0,0,0,0,-0.0244,-0.021,-0.0191,-0.0195,-0.0167,-0.0116,-0.0113,-0.0084,-0.0039,-0.0031,0.0038,0.0055,0.0094,0.0138,0.013,0.0195,0.0219,0.0222,0.016,0.0155,0.015,0.0135,0.0178,0,0,0,0,0,-0.0257,-0.0257,-0.0217,-0.0221,-0.021,-0.0162,-0.0148,-0.012,-0.0075,-0.0055,-0.0003,0.0056,0.0106,0.0138,0.0183,0.0221,0.0271,0.0233,0.0229,0.0224,0.0223,0.0293,0.0295,0.0279,0.0279,0.0279,0,0,-0.0275,-0.0256,-0.0256,-0.023,-0.0203,-0.0199,-0.0151,-0.0136,-0.0124,-0.0046,-0.0015,0.0037,0.011,0.015,0.0172,0.0188,0.0255,0.0225,0.022,0.0222,0.0294,0.0295,0.0296,0.0279,0.0279,0.0279,0,0,-0.0317,-0.0294,-0.031,-0.0292,-0.0263,-0.023,-0.023,-0.0183,-0.0153,-0.0118,-0.0059,-0.0005,0.0066,0.0122,0.016,0.0159,0.0222,0.0172,0.0145,0.0213,0.0214,0.0217,0.0279,0.0288,0.0176,0.0176,0.0176,0,-0.0341,-0.0352,-0.0311,-0.0321,-0.0313,-0.025,-0.0264,-0.0225,-0.0167,-0.014,-0.012,-0.0002,0.0055,0.012,0.012,0.0149,0.0195,0.0157,0.0206,0.0209,0.0213,0.0277,0.0287,0.0173,0.0173,0.0173,0.0174,0,-0.0391,-0.04,-0.0408,-0.0397,-0.0381,-0.0383,-0.0329,-0.0303,-0.0259,-0.0211,-0.0146,-0.0061,0.001,0.0038,0.0081,0.0136,0.0162,0.0184,0.0215,0.0209,0.0277,0.0289,0.0167,0.0169,0.017,0.0171,0,0,-0.0449,-0.0446,-0.0449,-0.0461,-0.0423,-0.0418,-0.0392,-0.0349,-0.0328,-0.0255,-0.0216,-0.0121,-0.0068,-0.0022,0.0045,0.0111,0.0175,0.0152,0.0157,0.0206,0.0323,0.0348,0.0365,0.0204,0.0205,0.0207,0.0359,0,-0.0502,-0.0547,-0.052,-0.0552,-0.0571,-0.0507,-0.0489,-0.0436,-0.0373,-0.0319,-0.0209,-0.015,-0.0091,-0.0056,0.0018,0.0134,0.0204,0.0132,0.0329,0.0335,0.0352,0.0378,0.0331,0.0463,0.0371,0.0373,0.0374,0,-0.0561,-0.0583,-0.0631,-0.0634,-0.0634,-0.0635,-0.0591,-0.0566,-0.0462,-0.041,-0.0321,-0.0233,-0.012,-0.0075,0.0124,0.0074,0.0187,0.0282,0.029,0.0349,0.0383,0.0457,0.049,0.0395,0.0394,0.0392,0.0391,0,-0.0632,-0.066,-0.0702,-0.0705,-0.0693,-0.0694,-0.0675,-0.0596,-0.057,-0.0463,-0.0426,-0.0281,-0.0202,-0.0046,0.0149,0.0138,0.0371,0.0383,0.0518,0.0521,0.0539,0.0541,0.0524,0.0524,0.0523,0.0523,0.0523,0,-0.0705,-0.0739,-0.0742,-0.077,-0.081,-0.0768,-0.0777,-0.0731,-0.0655,-0.062,-0.0483,-0.0411,-0.0192,-0.0029,0.0139,0.037,0.0369,0.0523,0.0567,0.0511,0.0509,0.0493,0.0487,0.0529,0.0528,0.0526,0.0525,0,-0.0779,-0.0782,-0.0836,-0.0845,-0.085,-0.0877,-0.0861,-0.0857,-0.0774,-0.0722,-0.069,-0.0498,-0.0278,-0.005,0.0222,0.0358,0.0573,0.0655,0.0573,0.0604,0.0679,0.0667,0.0817,0.0819,0.0821,0.0823,0.0824,0,-0.0824,-0.086,-0.0903,-0.0941,-0.0951,-0.0977,-0.0989,-0.0927,-0.091,-0.0765,-0.074,-0.052,-0.0341,0.0064,0.0342,0.0646,0.0649,0.0766,0.0738,0.0684,0.0711,0.0697,0.0683,0.0736,0.0737,0.0737,0.0737,0,-0.0906,-0.0916,-0.0957,-0.1037,-0.1075,-0.1107,-0.1113,-0.1119,-0.1023,-0.094,-0.0781,-0.0623,-0.0233,0.0097,0.0474,0.0643,0.0709,0.0784,0.0773,0.0658,0.0617,0.064,0.0628,0.0741,0.0741,0.0741,0.074,0.074,-0.0955,-0.1004,-0.1056,-0.1128,-0.1176,-0.1216,-0.1231,-0.1196,-0.114,-0.0982,-0.0825,-0.0538,-0.0245,0.0307,0.0559,0.0795,0.0798,0.0851,0.0846,0.0841,0.0794,0.0757,0.0899,0.0899,0.09,0.09,0.0901,0,-0.1015,-0.1064,-0.1144,-0.122,-0.128,-0.1279,-0.1291,-0.1255,-0.1168,-0.0976,-0.0772,-0.0414,-0.0033,0.0284,0.0658,0.087,0.0845,0.0896,0.0816,0.0811,0.0807,0.0754,0.0852,0.0852,0.0853,0.0853,0,0,-0.1049,-0.1132,-0.1173,-0.1284,-0.1332,-0.1369,-0.1366,-0.1274,-0.1126,-0.092,-0.0688,-0.0384,-0.0004,0.0245,0.0501,0.0691,0.0695,0.0706,0.0723,0.0591,0.0585,0.0759,0.067,0,0,0,0,0]}],[{"header":{"parameterUnit":"m.s-1","parameterCategory":2,"la1":30.2991,"la2":30.254,"lo1":-89.0895,"lo2":-89.0444,"dy":0.0017,"dx":0.0017,"nx":28,"ny":28,"refTime":"2025-04-30T03:00:00:Z","depth":"4","parameterNumber":2,"parameterNumberName":"U-component_of_CURRENTS"},"data":[0,0,0,0,0,0,0,0,0,0,0,0,0,0,0,0,0,0,0,0,0,0,0,0,0,0,0,0,0,0,0,0,0,0,0,0,0,0,0,0,0,0,0,0,0,0,0,0,0,0,0,0,0,0,0,0,0,0,-0.1825,-0.1826,0,-0.1904,-0.1904,-0.1905,-0.1948,-0.1948,-0.1949,-0.1949,-0.2009,-0.201,-0.2011,0,0,0,0,0,0,0,0,0,0,0,0,0,-0.1713,-0.1714,-0.1825,-0.1826,-0.1827,-0.1904,-0.1905,-0.1905,-0.1948,-0.1948,-0.1949,-0.1949,-0.2008,-0.201,-0.2012,0,0,0,0,0,0,0,0,0,0,0,0,0,-0.1772,-0.1715,-0.1825,-0.1859,-0.1863,-0.1903,-0.1905,-0.1906,-0.1948,-0.1948,-0.1949,-0.1949,-0.2008,-0.201,-0.2012,-0.2016,0,0,-0.2018,-0.2019,0,0,0,0,0,0,0,0,-0.1768,-0.1776,-0.1853,-0.1857,-0.1861,-0.1918,-0.1887,-0.1942,-0.1948,-0.1914,-0.1949,-0.1949,-0.1977,-0.1982,-0.1994,-0.2019,-0.2022,-0.2018,-0.2019,-0.202,-0.2021,0,0,0,0,0,0,0,-0.1764,-0.1773,-0.1854,-0.1854,-0.1859,-0.1871,-0.188,-0.1898,-0.1941,-0.1917,-0.1921,-0.1932,-0.1979,-0.1992,-0.1995,-0.2023,-0.2018,-0.202,-0.2021,-0.2022,-0.2144,-0.2146,0,0,0,0,0,0,-0.1758,-0.1769,-0.1852,-0.1857,-0.1817,-0.1873,-0.1882,-0.1898,-0.1941,-0.1949,-0.1932,-0.1934,-0.1988,-0.1993,-0.1998,-0.2087,-0.202,-0.2022,-0.2023,-0.2142,-0.2145,-0.2147,0,0,0,0,0,0,-0.1755,-0.1765,-0.1849,-0.1816,-0.1827,-0.1874,-0.1892,-0.1899,-0.1942,-0.1953,-0.196,-0.1969,-0.1989,-0.1995,-0.2048,-0.2086,-0.2023,-0.2025,-0.214,-0.2143,-0.2146,-0.2212,0,0,0,0,0,0,-0.1752,-0.1763,-0.1787,-0.1815,-0.1829,-0.1895,-0.1892,-0.1901,-0.1947,-0.1951,-0.1987,-0.1991,-0.1989,-0.2045,-0.205,-0.2088,-0.2026,-0.2137,-0.2141,-0.2145,-0.2207,-0.2217,-0.2225,0,0,0,0,0,-0.1747,-0.1774,-0.1788,-0.1799,-0.1855,-0.1897,-0.1906,-0.1938,-0.1949,-0.1976,-0.2005,-0.1992,-0.2073,-0.2049,-0.2054,-0.2093,-0.2135,-0.214,-0.2145,-0.2203,-0.2215,-0.2225,0,0,0,0,0,0,-0.174,-0.1782,-0.1797,-0.1837,-0.1875,-0.1905,-0.1936,-0.1956,-0.2,-0.2013,-0.2018,-0.2025,-0.2086,-0.2083,-0.2056,-0.2141,-0.2102,-0.2108,-0.2145,-0.2156,-0.2165,-0.2155,-0.2028,0,0,0,0,0,-0.1748,-0.178,-0.1819,-0.1854,-0.1874,-0.1911,-0.1937,-0.1963,-0.1998,-0.2019,-0.2046,-0.2075,-0.2104,-0.2126,-0.2149,-0.2195,-0.2172,-0.2225,-0.2234,-0.2241,-0.2238,-0.2245,-0.2254,-0.2162,-0.2162,-0.2162,0,0,-0.1757,-0.1784,-0.1804,-0.1856,-0.1886,-0.1928,-0.1929,-0.1981,-0.2025,-0.2017,-0.2093,-0.2111,-0.2124,-0.2179,-0.2205,-0.2184,-0.2255,-0.2247,-0.2253,-0.2246,-0.2251,-0.2259,-0.2267,-0.2165,-0.2165,-0.2164,0,0,-0.1777,-0.1813,-0.1843,-0.188,-0.1936,-0.1961,-0.1983,-0.2036,-0.2072,-0.2139,-0.2145,-0.2187,-0.2239,-0.2254,-0.2266,-0.2339,-0.2304,-0.2354,-0.2391,-0.2399,-0.2406,-0.2411,-0.2387,-0.239,-0.2357,-0.2357,-0.2357,0,-0.1787,-0.1829,-0.1861,-0.19,-0.1937,-0.198,-0.2024,-0.2068,-0.2136,-0.2167,-0.2175,-0.226,-0.2272,-0.2325,-0.2351,-0.2359,-0.2345,-0.2347,-0.2408,-0.2414,-0.2418,-0.2392,-0.2394,-0.2361,-0.2361,-0.236,-0.236,0,-0.1819,-0.1868,-0.1892,-0.1955,-0.2001,-0.2049,-0.2107,-0.2165,-0.2213,-0.2248,-0.2326,-0.2351,-0.2393,-0.2411,-0.2404,-0.2452,-0.2425,-0.2418,-0.2375,-0.2431,-0.24,-0.2401,-0.2366,-0.2365,-0.2364,-0.2363,0,0,-0.1798,-0.1895,-0.1907,-0.1948,-0.2037,-0.2073,-0.2157,-0.2232,-0.2283,-0.2354,-0.241,-0.2471,-0.248,-0.2493,-0.2497,-0.2506,-0.2525,-0.2479,-0.2478,-0.2443,-0.252,-0.2353,-0.2337,-0.2531,-0.2531,-0.2532,-0.2482,0,-0.1816,-0.189,-0.1943,-0.2028,-0.2069,-0.2144,-0.2214,-0.2291,-0.2354,-0.2418,-0.2458,-0.2512,-0.2513,-0.2534,-0.2549,-0.2532,-0.2534,-0.2538,-0.248,-0.2478,-0.2313,-0.2335,-0.2535,-0.2482,-0.2483,-0.2483,-0.2483,0,-0.1822,-0.1874,-0.1954,-0.2061,-0.2088,-0.2153,-0.2264,-0.2332,-0.2427,-0.2473,-0.2535,-0.256,-0.2599,-0.2585,-0.259,-0.2594,-0.2563,-0.2543,-0.2541,-0.2358,-0.2312,-0.2417,-0.2485,-0.2484,-0.2484,-0.2484,-0.2484,0,-0.1767,-0.188,-0.1945,-0.1984,-0.2109,-0.2171,-0.2242,-0.2349,-0.2404,-0.2501,-0.2538,-0.2598,-0.2617,-0.2614,-0.258,-0.259,-0.2554,-0.2561,-0.2382,-0.2369,-0.2506,-0.25,-0.2555,-0.2555,-0.2555,-0.2556,-0.2556,0,-0.1745,-0.1803,-0.1931,-0.1965,-0.2046,-0.2148,-0.2239,-0.2317,-0.2419,-0.2461,-0.2554,-0.2571,-0.2625,-0.2613,-0.2585,-0.2468,-0.2559,-0.2376,-0.2344,-0.2535,-0.2533,-0.2506,-0.2501,-0.2554,-0.2554,-0.2554,-0.2555,0,-0.167,-0.176,-0.1835,-0.1974,-0.2021,-0.2076,-0.2221,-0.227,-0.2386,-0.2439,-0.2467,-0.2552,-0.2527,-0.2543,-0.2516,-0.2442,-0.2368,-0.2305,-0.2485,-0.2466,-0.2179,-0.2179,-0.2101,-0.2095,-0.2089,-0.2085,-0.2081,0,-0.1636,-0.1669,-0.1811,-0.1851,-0.192,-0.2022,-0.2081,-0.2228,-0.2269,-0.2395,-0.2388,-0.2424,-0.2453,-0.2266,-0.2317,-0.2238,-0.2216,-0.2167,-0.2195,-0.2155,-0.2133,-0.2141,-0.2148,-0.2072,-0.2071,-0.207,-0.2068,0,-0.1556,-0.162,-0.1676,-0.175,-0.1823,-0.1894,-0.199,-0.2002,-0.2145,-0.2277,-0.2231,-0.2207,-0.217,-0.2138,-0.2081,-0.2037,-0.2197,-0.2111,-0.2123,-0.2148,-0.2119,-0.2105,-0.2118,-0.205,-0.2052,-0.2054,-0.2055,0,-0.149,-0.1501,-0.1573,-0.1621,-0.1703,-0.172,-0.18,-0.1835,-0.1891,-0.2035,-0.2009,-0.205,-0.2132,-0.203,-0.1984,-0.1918,-0.1902,-0.1848,-0.1873,-0.1894,-0.1852,-0.1786,-0.1573,0,0,0,0,0,-0.1408,-0.1398,-0.1434,-0.1474,-0.1546,-0.1587,-0.171,-0.1794,-0.1934,-0.184,-0.1919,-0.1873,-0.1809,-0.1839,-0.1725,-0.1901,-0.1914,-0.1764,-0.1868,-0.1946,-0.1968,-0.1938,0,0,0,0,0,0,-0.1348,-0.1378,-0.1379,-0.1328,-0.1324,-0.1384,-0.145,-0.1555,-0.1519,-0.1664,-0.1629,-0.1749,-0.1706,-0.1823,-0.1677,-0.1687,-0.1712,-0.1808,-0.1803,-0.1934,-0.1953,-0.1971,-0.1948,0,0,0,0,0]},{"header":{"parameterUnit":"m.s-1","parameterCategory":2,"la1":30.2991,"la2":30.254,"lo1":-89.0895,"lo2":-89.0444,"dy":0.0017,"dx":0.0017,"nx":28,"ny":28,"refTime":"2025-04-30T03:00:00:Z","depth":"4","parameterNumber":3,"parameterNumberName":"V-component_of_CURRENTS"},"data":[0,0,0,0,0,0,0,0,0,0,0,0,0,0,0,0,0,0,0,0,0,0,0,0,0,0,0,0,0,0,0,0,0,0,0,0,0,0,0,0,0,0,0,0,0,0,0,0,0,0,0,0,0,0,0,0,0,0,-0.0172,-0.0171,0,-0.0116,-0.0115,-0.0114,-0.007,-0.007,-0.0069,-0.0069,0.0042,0.0045,0.0048,0,0,0,0,0,0,0,0,0,0,0,0,0,-0.0203,-0.0203,-0.0172,-0.0171,-0.0171,-0.0116,-0.0115,-0.0114,-0.007,-0.007,-0.0069,-0.0069,0.0041,0.0045,0.0048,0,0,0,0,0,0,0,0,0,0,0,0,0,-0.0171,-0.0203,-0.0172,-0.0144,-0.0141,-0.0116,-0.0115,-0.0113,-0.007,-0.007,-0.0069,-0.0069,0.004,0.0044,0.0048,0.0067,0,0,0.0061,0.0063,0,0,0,0,0,0,0,0,-0.0173,-0.0169,-0.0149,-0.0146,-0.0143,-0.0101,-0.0085,-0.0051,-0.007,-0.0095,-0.0069,-0.0069,-0.0002,0.0005,0.0018,0.0073,0.0077,0.0061,0.0064,0.0066,0.0067,0,0,0,0,0,0,0,-0.0175,-0.0171,-0.0147,-0.0148,-0.0145,-0.0121,-0.0117,-0.0078,-0.0048,-0.0092,-0.009,-0.0087,-0.0,0.0013,0.0021,0.0079,0.0061,0.0065,0.0067,0.0069,0.0175,0.0175,0,0,0,0,0,0,-0.0189,-0.0174,-0.0149,-0.0146,-0.016,-0.0122,-0.0116,-0.0113,-0.005,-0.0041,-0.0088,-0.0085,0.0006,0.0016,0.0025,0.0057,0.0066,0.0069,0.0072,0.0174,0.0175,0.0175,0,0,0,0,0,0,-0.019,-0.0187,-0.0151,-0.016,-0.0154,-0.0122,-0.0119,-0.0112,-0.01,-0.0047,-0.0037,-0.0082,0.0007,0.0019,0.0059,0.0062,0.0071,0.0075,0.0174,0.0174,0.0175,0.0118,0,0,0,0,0,0,-0.0191,-0.0188,-0.0193,-0.0161,-0.0154,-0.0144,-0.0119,-0.0111,-0.01,-0.0096,-0.0039,-0.0028,0.0008,0.0052,0.0063,0.0068,0.0078,0.0174,0.0174,0.0175,0.012,0.0117,0.0114,0,0,0,0,0,-0.0192,-0.0202,-0.0193,-0.0191,-0.0162,-0.0145,-0.0139,-0.0113,-0.01,-0.0099,-0.0057,-0.003,0.0064,0.0055,0.0068,0.0074,0.0173,0.0174,0.0175,0.0121,0.0118,0.0114,0,0,0,0,0,0,-0.0219,-0.0198,-0.0188,-0.0191,-0.0173,-0.0139,-0.0138,-0.0118,-0.0085,-0.008,-0.0027,-0.0013,0.0021,0.0057,0.0047,0.0107,0.0123,0.0126,0.0078,0.0076,0.0073,0.0058,0.0082,0,0,0,0,0,-0.0229,-0.023,-0.0205,-0.0209,-0.0203,-0.0171,-0.0162,-0.0144,-0.011,-0.0096,-0.0056,-0.0009,0.0034,0.006,0.0098,0.0133,0.0167,0.0146,0.0144,0.0141,0.0138,0.0193,0.0194,0.0177,0.0177,0.0177,0,0,-0.0242,-0.023,-0.0231,-0.0215,-0.0199,-0.0196,-0.0164,-0.0155,-0.0146,-0.0088,-0.0064,-0.0021,0.0039,0.0075,0.0095,0.0106,0.0163,0.0142,0.0139,0.0138,0.0194,0.0195,0.0197,0.0178,0.0178,0.0178,0,0,-0.027,-0.0257,-0.0269,-0.0258,-0.0241,-0.0219,-0.0219,-0.0187,-0.0166,-0.0138,-0.0092,-0.0047,0.0012,0.0059,0.0092,0.0099,0.0141,0.011,0.0092,0.0144,0.0146,0.0148,0.0185,0.0191,0.0115,0.0115,0.0115,0,-0.0288,-0.0296,-0.027,-0.0278,-0.0275,-0.0233,-0.0244,-0.0215,-0.0173,-0.0154,-0.0139,-0.0043,0.0006,0.0064,0.0068,0.0093,0.0122,0.0096,0.014,0.0142,0.0145,0.0184,0.0191,0.0112,0.0113,0.0113,0.0113,0,-0.032,-0.033,-0.0336,-0.0331,-0.0322,-0.0326,-0.0288,-0.027,-0.024,-0.0205,-0.0151,-0.0081,-0.0023,0.0004,0.004,0.0088,0.0101,0.0123,0.0143,0.0143,0.0184,0.0192,0.0109,0.011,0.011,0.0111,0,0,-0.0357,-0.036,-0.0364,-0.0377,-0.0353,-0.0352,-0.0333,-0.0303,-0.0291,-0.0233,-0.0205,-0.012,-0.0081,-0.0041,0.0015,0.0069,0.0116,0.01,0.0104,0.0127,0.0221,0.0197,0.0204,0.0143,0.0144,0.0145,0.0238,0,-0.0394,-0.0428,-0.0412,-0.0442,-0.0457,-0.0417,-0.0405,-0.0367,-0.0323,-0.0285,-0.0194,-0.0148,-0.0096,-0.0069,-0.0007,0.0084,0.0137,0.0088,0.0226,0.023,0.0201,0.0213,0.0149,0.0244,0.0246,0.0248,0.0249,0,-0.0433,-0.0451,-0.049,-0.0503,-0.0505,-0.0513,-0.049,-0.0472,-0.0397,-0.0359,-0.0289,-0.022,-0.0128,-0.0088,0.0067,0.0031,0.0117,0.0191,0.0196,0.0199,0.0221,0.0249,0.0264,0.0263,0.0262,0.0261,0.026,0,-0.0479,-0.0508,-0.0544,-0.0549,-0.055,-0.0559,-0.0553,-0.0499,-0.0485,-0.0406,-0.0383,-0.0264,-0.0206,-0.0081,0.007,0.0068,0.0237,0.0256,0.0318,0.0317,0.0335,0.0333,0.0364,0.0364,0.0364,0.0363,0.0363,0,-0.0523,-0.0557,-0.0575,-0.0598,-0.0641,-0.0617,-0.0638,-0.0608,-0.056,-0.0541,-0.0431,-0.0382,-0.0201,-0.008,0.0054,0.0206,0.0227,0.0314,0.0342,0.0309,0.0302,0.0341,0.0337,0.0367,0.0366,0.0365,0.0365,0,-0.0568,-0.0579,-0.063,-0.0654,-0.0668,-0.0699,-0.0712,-0.0716,-0.0662,-0.0633,-0.061,-0.0466,-0.0306,-0.0126,0.0085,0.0175,0.033,0.0381,0.0322,0.0345,0.0378,0.0371,0.0452,0.0452,0.0452,0.0452,0.0452,0,-0.0593,-0.0624,-0.0682,-0.0722,-0.0742,-0.0781,-0.0804,-0.0773,-0.0767,-0.0678,-0.0661,-0.0509,-0.0394,-0.0113,0.0068,0.0312,0.0349,0.0413,0.0406,0.037,0.0389,0.0381,0.0374,0.0452,0.0452,0.0452,0.0452,0,-0.0643,-0.0666,-0.0704,-0.0786,-0.0835,-0.0878,-0.0903,-0.0907,-0.0852,-0.0811,-0.0684,-0.0523,-0.0344,-0.0118,0.0069,0.0246,0.036,0.0413,0.0415,0.0409,0.0371,0.0388,0.0381,0.0452,0.0452,0.0452,0.0452,0,-0.0677,-0.0717,-0.0771,-0.0837,-0.0905,-0.0946,-0.0956,-0.0926,-0.0903,-0.0792,-0.0752,-0.0537,-0.0406,-0.0152,0.0022,0.0188,0.023,0.0271,0.0281,0.0283,0.0204,0.0128,0.0159,0,0,0,0,0,-0.0707,-0.075,-0.0819,-0.0886,-0.0951,-0.0983,-0.1005,-0.0994,-0.0946,-0.0862,-0.0799,-0.0619,-0.0339,-0.0211,-0.0047,0.0003,0.0237,0.0196,0.0283,0.0451,0.0451,0.0385,0,0,0,0,0,0,-0.0729,-0.0795,-0.082,-0.0906,-0.0957,-0.1017,-0.1031,-0.1001,-0.0935,-0.0863,-0.0704,-0.0603,-0.0324,-0.0429,-0.0049,0.0001,0.0072,0.0337,0.034,0.0451,0.0451,0.0451,0.0383,0,0,0,0,0]}]]